NIMBUS 2 DEB, 27406

Orbit data source: Space-Track

NIMBUS 2 DEB, 27406 is space debris in SSO originally from a launch on Sun, 15 May 1966 UTC launched from the Air Force Western Test Range (AFWTR). Debris objects in space refer to the collection of defunct objects orbiting the Earth. Examples of debris include non-operational satellites, rocket bodies, and fragments generated from explosions, collisions, or faulty payload assembly.

Loading next visibility...
Identifier
27406, 1966-040AL
Orbit
SSO
Country
Flag of USUS
Related business
Manufacturer
Unknown
Mission
Spacecraft
Bus & Motor
Unknown
Mass
Unknown
Launch date (UTC)
1966-05-15 (59 years ago)
Launch vehicle
Unknown
Launch site
Air Force Western Test Range (AFWTR)
Object type
Payload
Rocket body
Debris
Shape & HBR
Unknown shape, 0.1 m
Radar Cross Section
Small (<0.1 m²)

Expand to show TLE details & history
Last TLE update: 6 days ago

TLE from 6 days ago
0 NIMBUS 2 DEB
1 27406U 66040AL  25300.33765029  .00003546  00000-0  42193-2 0  9999
2 27406 100.3038 323.0436 0039709  84.3128 293.5281 13.67805559293509
Epoch: 2025-10-27T08:06Z
TLE epoch observation values (Epoch: 2025-10-27T08:06:12.985Z)
Latitude
17.12211°
Longitude
162.35467°
Altitude
998.032 km
Speed
7.36 km/s
True Right ascension
21h 19m 23s
True Declination
17° 01' 43"
Sunlit
Object was in daylight at epoch
Visualization orbit readout
Latitude
Unknown
Longitude
Unknown
Altitude
Unknown
Speed
Unknown
Apparent Right ascension
Unknown
Apparent Declination
Unknown
Sunlit
N/A
Visualization observer readout
Local Sidereal Time
16:37:28
Azimuth
Unknown
Elevation
Unknown
Doppler factor
Unknown
Orbital elements
Apogee altitude
1,034.086 km
Perigee altitude
975.453 km
Semi-major axis
7,382.907 km
Eccentricity
0.00397
Inclination
100.3038°
RAAN
323.0436°
Arg. of periapsis
84.3128°
True anomaly
293.11007°
Mean anomaly
293.5281°
Eccentric anomaly
293.31917°
Mean motion
3.42139 °/min
Orbital period
105.22 mins
BSTAR
0.0042193
Loading maneuver chart data...
Computing Atmospheric mass density...
Loading historical data...
Loading historical data...
Loading historical data...
Loading historical data...
Loading historical data...
Loading historical data...
Loading historical data...

Documentation

Showing up to 5 results
|